Location: Bukit Nyuki
(2.5885°N, 113.7476°E)
Time: 13:44:09
(UTC+00:00)

Chandra Rocket (1) - Pass Details

Date: 18 May 2021
Orbit: 355 x 10990 km, 28.4° (Epoch: 15 June)

Event Time Altitude Azimuth Distance (km) Brightness Sun altitude
Exits shadow 19:49:22 25° 131° (SE) 1,741 4.4 -34.3°
Drops below altitude 10° 19:51:29 10° 104° (ESE) 2,120 5.3 -33.9°
Sets 19:53:12 0° 91° (E) 2,694 6.2 -33.5°
